NOAA NWS Hourly Roundups by Site

Regional Weather Roundup for San Diego, CA

To Select Another Site Choose from List

Select Site:  

000
ASUS46 KSGX 311611
RWRSGX

SAN DIEGO HOURLY WEATHER ROUNDUP
NATIONAL WEATHER SERVICE SAN DIEGO CA
900 AM PDT TUE MAR 31 2020

NOTE: "FAIR" INDICATES FEW OR NO CLOUDS BELOW 12,000 FEET WITH NO
SIGNIFICANT WEATHER AND/OR OBSTRUCTIONS TO VISIBILITY.

CAZ042-043-060-061-PZZ750-775-311700-

GREATER SAN DIEGO AREA

CITY           SKY/WX    TMP DP  RH WIND       PRES   REMARKS
SAN DIEGO AP   CLOUDY    61  56  83 N3        30.07F
NATIONAL CITY    N/A    N/A N/A N/A CALM      30.07S
CHULA VISTA      N/A     57  53  86 CALM      29.98S
BROWN FIELD    FAIR      58  53  84 CALM      30.06F
MIRAMAR MCAS   CLOUDY    60  52  74 N3        30.06F
MONTGOMERY FLD FAIR      59  51  75 N5        30.06F
LEMON GROVE      N/A     58  52  81 CALM      30.03F

$$

NORTH SAN DIEGO COUNTY

CITY           SKY/WX    TMP DP  RH WIND       PRES   REMARKS
CAMP PENDLETON FAIR      54  47  77 CALM      30.07S
OCEANSIDE AP   FAIR      56  51  84 CALM      30.06S
OCEANSIDE HBR    N/A     56  52  86 N3        30.15S
VISTA            N/A     53  47  82 CALM      30.04S
CARLSBAD       FAIR      58  50  75 CALM      30.05F
ENCINITAS        N/A     55  53  94 CALM        N/A
DEL MAR          N/A     56  55  94 CALM      30.07F
LA JOLLA SCRIP   N/A     57  53  86 CALM      30.06F
FALLBROOK      FAIR      57  46  67 CALM      30.07S
ESCONDIDO        N/A     57  52  82 CALM      30.06F
SAN MARCOS       N/A     58  52  82 CALM      30.10S
RANCHO BERNARD   N/A     54  50  85 CALM      30.06F
POWAY            N/A     54  51  91 CALM      30.09S

$$

EAST SAN DIEGO COUNTY

CITY           SKY/WX    TMP DP  RH WIND       PRES   REMARKS
RAMONA         FAIR      55  49  80 CALM      30.07F
LA MESA          N/A     58  50  74 CALM      30.02S
JAMUL            N/A     53  51  92 CALM      30.06F
DESCANSO N       N/A     55  36  48 NE3       30.06F
MT. LAGUNA OBS   N/A     54  22  28 CALM      30.04F
CAMPO            N/A     54  44  69 CALM      30.07S

$$

ORANGE COUNTY AND THE LOS ANGELES BASIN

CITY           SKY/WX    TMP DP  RH WIND       PRES   REMARKS
JOHN WAYNE AP  PTSUNNY   62  47  57 CALM      30.07S
LAGUNA BEACH     N/A     55  51  85 CALM      30.06S
LAKE FOREST FR   N/A     61  42  50 CALM      29.95S
HUNTINGTON BCH   N/A     57  54  89 CALM      30.07S
LOS ALAMITOS   PTSUNNY   58  43  57 CALM      30.06F
FULLERTON      PTSUNNY   61  47  59 CALM      30.06F
LONG BEACH     FAIR      58  49  72 CALM      30.07F
L.A. AP        PTSUNNY   64  51  62 NE3       30.06F
L.A. DOWNTOWN  FAIR      64  50  60 CALM      30.06F

$$

THE INLAND EMPIRE

CITY           SKY/WX    TMP DP  RH WIND       PRES   REMARKS
CORONA         FAIR      57  50  77 E3        30.09F
ALTA LOMA        N/A     63  45  51 SW2       30.07S
CHINO          PTSUNNY   58  49  72 CALM      30.10S
ONTARIO        CLOUDY    61  44  53 E5        30.08S
SAN BERNARDINO PTSUNNY   57  41  54 CALM      30.09S
RIVERSIDE AP   FAIR      57  47  69 E5        30.09S
MORENO VALLEY    N/A     61  53  73 CALM      30.09S
MARCH ARB      FAIR      55  47  75 CALM      30.09S
HORSETHIEF CYN   N/A     56  46  69 SE3       30.08S
PERRIS           N/A     52  51  95 CALM      30.10F
LAKE ELSINORE    N/A     53  49  87 CALM      30.04R
HEMET EAST       N/A     60  33  36 CALM      30.10F
FRENCH VALLEY  FAIR      54  46  76 N3        30.09S
TEMECULA         N/A     52  49  90 CALM      30.07S

$$

SAN BERNARDINO AND RIVERSIDE COUNTY MOUNTAINS

CITY           SKY/WX    TMP DP  RH WIND       PRES   REMARKS
BIG BEAR AP    FAIR      41  28  60 CALM      30.25S
BIG BEAR LAKE    N/A     42  35  75 CALM      30.18F
LK ARROWHEAD N   N/A     51  33  50 CALM      30.08S
WRIGHTWOOD       N/A     59  28  31 SW3       30.10F
ANGELUS OAKS     N/A     49  35  60 CALM      30.07F
IDYLLWILD        N/A     45  42  89 CALM      30.05F
GARNER VALLEY    N/A     41  38  89 CALM      30.12F
TORO PEAK        N/A     43  15  32 SE2         N/A

$$

SOUTHERN DESERT INCLUDING THE COACHELLA VALLEY

CITY           SKY/WX    TMP DP  RH WIND       PRES   REMARKS
PALM SPRINGS   FAIR      65  45  48 CALM      30.08F
THOUSAND PALMS   N/A     64  44  49 W2        30.02S
PALM DESERT      N/A     63  44  50 CALM      31.22
INDIO            N/A     64  44  47 CALM      30.05S
THERMAL        FAIR      66  44  45 N5        30.04S
BORREGO AP     FAIR      61  39  44 CALM      30.06F
OCOTILLO WELLS   N/A     69  43  39 CALM      29.99F
CANEBRAKE        N/A     64  41  43 CALM      30.03S
BLYTHE         FAIR      63  36  36 W5        30.08R
IMPERIAL AP    FAIR      65  43  44 CALM      30.05R
EL CENTRO NAS  CLOUDY    65  40  39 W5        30.07S
YUMA AZ        CLOUDY    66  40  38 N7        30.05S
MEXICALI       CLOUDY    64  36  34 CALM      30.06S

$$

UPPER DESERT

CITY           SKY/WX    TMP DP  RH WIND       PRES   REMARKS
VICTORVILLE AP SUNNY    N/A N/A N/A S8        30.16S
HESPERIA         N/A     54  38  54 SW2       30.17F
APPLE VALLEY     N/A     53  39  59 SE2       30.18F
PALMDALE       FAIR      53  38  56 CALM      30.16F
LANCASTER      FAIR      56  42  59 W10       30.15F
EDWARDS AFB    PTSUNNY   46  39  77 CALM      30.13F
DAGGETT        FAIR      57  35  43 NW13      30.13F
29 PALMS N     FAIR      56  36  47 N6        30.20R
29 PALMS JTNP    N/A     57  39  50 CALM      30.06R
NEEDLES        FAIR      63  37  38 CALM      30.10S

$$

REGIONAL REPORTS

CITY           SKY/WX    TMP DP  RH WIND       PRES   REMARKS
SANTA BARBARA  FAIR      57  51  80 CALM      30.07S
SANDBERG       FAIR      48  37  65 NW21      30.19S
LAS VEGAS NV   FAIR      60  33  36 CALM      30.14F
PHOENIX AZ     PTSUNNY   63  39  41 E5        30.06F
TIJUANA        CLOUDY    57  54  88 CALM      30.08S

$$

OFFSHORE ISLANDS

CITY           SKY/WX    TMP DP  RH WIND       PRES   REMARKS
CATALINA ARPT  FAIR      62  43  49 N5        30.08F
SAN CLEMENTE I PTSUNNY   57  48  72 W6        30.08F
SAN NICOLAS IS PTSUNNY   57  54  89 NW10      30.07F

$$

MARINE AND OFFSHORE BUOY REPORTS

STATION/POSITION SKY/WX   TEMP    WIND        PRES    VSBY  SWELL
                          AIR SEA DIR/SP/G                  HT/PER/DIR
                          (F)     (DEG/KT/KT) (MB)    (MI)  (FT/S/D)
TANNER BANKS               58     320/ 16/ 21 1018.5F         2/180/13
S CLEMENTE BASIN           60     320/  8/ 10 1018.1
SAN NICOLAS IS.               58                N/A           2/180/13
SO. S. ROSA ISLA              57              1018.7
W. S. BARBARA CH           57 57  330/ 17/ 21 1018.6
M. S. BARBARA CH           57 57   30/  2/  4 1018.6
S. MONICA BASIN            58 59  350/  4/  6 1018.6R         2/200/15
S PEDRO CHANNEL               59                N/A           2/180/13
OCEANSIDE OFFSHR              59                N/A           2/190/13
TORREY PINES OTR              57                N/A           2/210/17
SAN DIEGO BAY                 62              1017.7F
POINT LOMA SOUTH              60                N/A           2/200/13

$$



 

View Past Reports for San Diego, CA.

Products Courtesy of NOAA-NWS
NWS Information Parsing Script by Ken True at Saratoga Weather - Script by SE Lincoln Weather.